(79) Eurynome
ephemeris date magn radius delta ra dec elong phase
Today7 Jul 202513.22.546 AU3.222 AU09h49m+10°25'41.2°15.2°
Opposition30 Apr 202611.62.905 AU1.898 AU14h33m-13°17'178.3°0.6°
(79) Eurynome - 2025-07-07
astro.vanbuitenen.nl


 
-1 year
-1 month
-1 day
Now
+1 day
+1 month
+1 year

The interactive orbit chart above shows the body's path through the solar system and its position at the given date. Green and blue lines are shown perpendicular to the ecliptic plane: Green if the path is above the ecliptic plane, blue if it is below. (Left-click and drag to rotate the view; Right-click and drag to move the view; Use scroll wheel to zoom in our out.)

The orbital elements of Eurynome are:

            e (Eccentricity)                : 0.1910968
            a (Semimajor axis)              : 2.4441040
            i (Inclination)                 : 4.61307
            Ω (Longitude of ascending node) : 206.50329
            ω (Argument of perihelion)      : 201.41444
            M (Mean anomaly)                : 75.70082
            Epoch                           : 2025 May 05

            L (Longitude of perihelion)     : 227.85461
            B (Latitude of perihelion)      : -1.68271
            P (Orbital period in years)     : 3.82            
        

The light curve chart below shows the estimated development of the minor planet's magnitude.


The all-sky chart below shows the path of the minor planet over the same period as the light curve. The current position is marked yellow.





The following chart shows the path of the minor planet in the next few days. The field of view is optimized for (~10x50) binoculars and finderscopes. A more printer-friendly version of the same chart can be found below.




Ephemerides:
Date       Time       RA (2000)    DEC (2000)    delta   radius  elong  phase   PA    magn
2025-07-07 00:00 UT   09 49 08.0   +10 25 59     3.222    2.546   41.2   15.2   113   13.2 
2025-07-07 03:42 UT   09 49 22.8   +10 24 51     3.223    2.547   41.1   15.2   113   13.2 
2025-07-08 00:00 UT   09 50 44.4   +10 18 35     3.232    2.548   40.6   15.1   113   13.2 
2025-07-09 00:00 UT   09 52 20.9   +10 11 08     3.242    2.550   40.1   14.9   113   13.2 
2025-07-10 00:00 UT   09 53 57.4   +10 03 38     3.252    2.552   39.6   14.7   113   13.2 
2025-07-11 00:00 UT   09 55 33.9   +09 56 04     3.262    2.554   39.0   14.5   113   13.2 
2025-07-12 00:00 UT   09 57 10.5   +09 48 28     3.272    2.556   38.5   14.3   113   13.2 
2025-07-13 00:00 UT   09 58 47.0   +09 40 48     3.282    2.558   38.0   14.1   113   13.2 
2025-07-14 00:00 UT   10 00 23.5   +09 33 05     3.291    2.560   37.4   14.0   113   13.2 
2025-07-15 00:00 UT   10 01 60.0   +09 25 20     3.301    2.562   36.9   13.8   114   13.2 
2025-07-16 00:00 UT   10 03 36.4   +09 17 31     3.311    2.564   36.4   13.6   114   13.2 
2025-07-17 00:00 UT   10 05 12.9   +09 09 39     3.320    2.566   35.8   13.4   114   13.2 
2025-07-18 00:00 UT   10 06 49.4   +09 01 45     3.329    2.568   35.3   13.2   114   13.2 
2025-07-19 00:00 UT   10 08 25.9   +08 53 47     3.338    2.570   34.7   13.0   114   13.2 
2025-07-20 00:00 UT   10 10 02.3   +08 45 47     3.348    2.572   34.2   12.8   114   13.2 
2025-07-21 00:00 UT   10 11 38.8   +08 37 44     3.357    2.573   33.7   12.6   114   13.2 
2025-07-22 00:00 UT   10 13 15.2   +08 29 38     3.365    2.575   33.1   12.5   114   13.2 
2025-07-23 00:00 UT   10 14 51.7   +08 21 30     3.374    2.577   32.6   12.3   115   13.2 
2025-07-24 00:00 UT   10 16 28.1   +08 13 19     3.383    2.579   32.1   12.1   115   13.2 
2025-07-25 00:00 UT   10 18 04.5   +08 05 05     3.391    2.581   31.5   11.9   115   13.2 
2025-07-26 00:00 UT   10 19 40.8   +07 56 49     3.400    2.583   31.0   11.7   115   13.2 
2025-07-27 00:00 UT   10 21 17.2   +07 48 30     3.408    2.585   30.5   11.5   115   13.2 


    Terminology:
            
    delta:  distance between minor planet and earth in AU
    radius: distance between minor planet and sun in AU
    magn:   magnitude (brightness) estimate    
    ra:     right ascension in hours (24h = 360deg)
    dec:    declination in degrees
    elong:  elongation in degrees (angle sun-earth-minor planet)    
    phase:  phase angle in degrees (angle sun-minor planet-earth)        
    AU:     Astronomical Unit (mean distance between earth and sun: 149597870.7 km
    

Orbital elements provided by the MPC (Minor Planet Center).
Calculations by a modified version of AAPlus, a C# implementation of the AA+ project by PJ Naughter from the algorithms presented in the book "Astronomical Algorithms" by Jean Meeus.
NGC2000 dso catalog and star labels from VizieR as provided by the Strasbourg astronomical Data Center.
Tycho2 catalog from the ESO archive.